Presure
202 209 213 209 236 229 233 257 248 222 216 215 208 202 202 205 210 203 197 203 196 193 192 199 193 194 188 195 195 189 189 188 158 109 187 193 195 196 194 193 192 196 203
241 224 230 232 266 260 243 227 216 210 204 210 207 207 213 213 212 203 196 190 186 197 197 193 191 192 193 188 194 181 184 189 191 194 194 194 194 188 193 195 201 208 210
221 232 230 223 227 198 214 211 213 213 214 213 212 212 202 201 203 201 187 190 192 195 196 199 195 184 177 188 188 191 188 195 200 204 207 209 211 214 212 210 218 224 225
228 215 213 214 215 220 217 219 215 214 213 213 217 210 205 205 203 189 193 191 192 196 205 186 175 195 191 192 199 195 202 206 213 217 216 216 218 226 234 251 239 238 245
240 242 247 249 242 241 236 231 226 222 219 214 198 196 192 192 195 199 203 208 209 196 190 200 206 192 199 197 202 207 207 211 216 218 224 229 252 243 276 284 282 287 284
212 210 205 205 204 209 205 193 193 189 192 193 198 202 202 205 212 215 186 202 195 197 210 193 194 194 196 194 205 209 218 214 217 271 274 282 287 288 296 300 337 395 516
201 201 199 192 213 212 217 225 225 223 221 217 212 207 206 205 202 190 205 207 208 199 195 193 198 195 199 203 215 217 219 266 275 288 289 309 333 348 434 482 494 514 493
209 202 203 200 204 206 205 201 199 196 196 194 203 206 208 207 206 205 204 193 193 190 194 192 197 204 204 211 226 261 287 287 283 297 347 334 468 467 485 469 481 471 454
197 195 201 200 197 200 200 194 202 200 197 205 205 205 203 206 206 200 197 194 188 185 193 195 205 208 213 252 273 292 300 304 320 358 471 472 475 496 455 458 442 436 441
197 196 190 184 193 192 195 193 192 200 202 197 199 197 205 201 195 192 187 189 195 195 211 224 229 261 275 270 271 304 296 395 468 450 461 426 418 447 423 405 397 394 399
194 192 191 188 214 216 218 224 224 214 191 191 194 195 186 190 186 191 185 201 226 235 232 252 266 275 250 297 313 296 467 430 413 399 398 404 392 388 381 377 374 372 376
203 220 224 225 221 221 219 211 214 210 205 203 196 191 189 190 184 204 221 213 244 248 262 263 252 276 310 286 394 443 416 395 411 397 391 384 379 370 367 363 356 357 361
214 219 218 218 215 223 214 204 202 198 193 194 196 197 198 220 215 220 227 242 250 243 255 256 264 279 299 467 432 401 384 388 389 386 379 366 361 353 350 347 350 357 359
214 214 246 236 230 216 207 198 182 191 195 197 203 215 216 228 230 231 240 246 244 254 226 256 287 388 462 427 400 381 368 393 385 369 361 353 342 340 364 352 350 394 424
209 214 233 230 212 202 193 186 184 187 204 209 210 215 228 226 228 238 241 240 252 288 276 293 417 465 433 399 372 360 394 380 364 359 341 332 353 338 338 367 412 411 414
225 224 243 208 197 191 194 187 209 205 204 215 211 218 223 218 233 238 243 246 265 290 283 408 454 439 402 377 360 371 373 359 355 332 324 343 330 352 364 404 404 405 417
215 199 203 200 195 192 194 203 205 206 211 212 218 217 220 229 245 243 234 245 282 301 400 453 443 409 380 365 358 365 353 355 329 334 338 326 349 357 400 389 392 404 422
184 198 192 191 199 201 201 207 211 201 212 213 215 233 230 243 241 234 247 260 302 403 454 441 417 384 366 355 358 356 358 326 331 338 333 345 352 382 392 384 380 394 432
201 192 188 200 193 201 212 210 202 203 216 221 235 244 245 241 237 283 275 287 409 460 443 423 392 369 361 353 361 360 325 321 335 324 335 350 353 396 382 370 372 391 445
193 199 191 195 201 213 208 202 213 214 221 235 240 244 254 242 256 269 282 355 460 444 429 404 374 361 359 350 360 339 310 332 320 323 334 345 350 392 370 364 362 360 387
199 191 199 201 209 205 203 213 212 211 236 241 201 252 242 248 267 302 349 361 444 432 414 387 364 357 358 348 351 317 330 319 312 324 324 341 346 389 363 352 332 328 332
196 201 195 207 204 207 214 213 223 235 243 195 257 242 250 289 279 330 359 442 428 421 398 371 354 361 355 344 342 320 325 313 303 323 324 333 343 387 353 342 324 321 318
203 198 207 204 197 215 212 228 238 247 242 256 245 252 296 270 318 364 450 434 421 415 384 361 348 369 356 319 320 326 316 308 307 327 325 326 344 385 352 326 319 312 320
202 212 209 204 214 215 223 240 242 228 236 217 268 293 265 320 341 401 442 427 419 404 372 352 335 330 318 325 322 319 310 307 319 326 329 329 344 377 367 323 314 306 332
206 212 214 211 214 226 238 247 227 224 248 293 288 263 314 338 380 381 433 426 419 391 361 344 331 321 317 328 326 304 305 319 327 335 334 333 332 340 380 326 312 308 332
213 217 211 187 224 237 227 245 210 252 259 271 264 313 331 356 381 366 433 428 415 372 353 337 325 323 330 328 301 310 324 331 335 337 339 340 344 353 369 347 316 307 325
Wind_Speed
70 78 81 79 55 59 51 33 32 60 70 73 75 77 79 79 77 75 74 75 76 77 78 78 76 77 76 81 80 80 83 85 74 55 84 88 92 94 97 97 97 99 103
46 58 57 53 41 33 39 55 61 63 68 68 72 75 75 74 74 74 74 76 77 81 81 79 80 82 81 79 81 77 82 86 89 93 95 95 98 96 102 105 107 109 110
51 47 49 54 52 57 58 59 61 62 63 66 71 72 70 73 74 75 75 78 80 81 82 84 82 78 77 83 85 86 86 91 97 100 101 101 103 105 107 111 114 114 114
43 48 50 52 54 56 58 57 59 60 64 67 69 68 71 73 73 75 78 80 82 84 85 83 79 86 85 87 92 93 98 101 108 113 112 110 111 118 117 116 117 118 120
37 38 39 40 40 42 44 47 50 55 59 61 63 66 70 72 75 77 80 84 82 84 85 88 90 88 94 94 100 110 111 113 117 116 122 125 123 126 127 122 120 119 118
33 36 39 42 46 48 49 53 58 62 66 67 68 70 73 75 77 77 77 82 84 87 92 87 92 95 100 100 114 116 123 118 123 124 124 127 127 127 130 128 136 114 74
39 41 44 48 47 51 53 54 55 57 59 62 65 67 71 73 77 80 85 88 91 91 93 95 104 106 111 115 123 124 124 125 124 125 125 134 138 136 95 69 66 57 56
39 41 44 48 51 53 54 56 58 61 63 66 70 73 76 78 81 84 87 88 93 95 102 105 112 117 117 124 128 128 130 125 121 129 134 131 75 65 60 59 54 51 53
46 49 52 54 57 58 60 62 63 66 68 70 72 75 78 82 84 87 92 96 98 99 107 111 117 120 122 123 128 133 133 132 138 124 67 63 61 57 53 48 50 51 45
50 52 54 58 60 61 62 65 67 69 71 75 76 78 79 81 85 89 94 98 103 107 113 113 116 120 127 126 124 138 132 106 65 66 61 63 58 46 48 50 52 54 52
49 52 56 61 61 63 64 64 65 69 75 78 79 80 83 86 90 94 93 103 105 108 112 116 123 128 116 135 128 133 68 71 70 69 64 56 57 53 53 53 55 55 57
56 55 55 55 55 57 58 61 61 65 71 73 78 82 86 90 91 99 99 106 111 114 123 123 118 131 138 129 100 71 71 72 60 58 55 54 53 52 53 54 54 56 58
56 56 56 55 54 54 57 61 63 68 73 77 81 85 90 93 97 101 105 116 119 115 122 123 125 126 135 73 72 72 71 63 57 53 51 52 52 53 55 57 58 60 61
59 59 56 55 56 59 62 65 69 76 80 83 86 89 93 101 104 108 117 121 121 127 107 124 133 109 71 69 68 69 69 54 50 51 52 51 53 54 56 57 61 57 52
61 61 60 58 61 65 69 72 77 81 83 85 89 96 105 105 109 119 121 123 129 134 131 129 105 69 64 65 68 67 53 50 51 51 52 55 55 56 58 61 49 49 49
62 60 63 63 67 70 74 78 80 82 86 93 95 102 106 105 120 121 127 125 133 132 132 109 73 62 63 63 64 57 50 51 50 52 55 53 55 58 59 49 48 48 46
59 63 64 66 70 73 79 81 83 86 95 98 106 105 111 120 125 125 116 124 132 128 111 75 60 59 59 60 59 53 52 50 52 52 51 54 55 56 45 45 44 46 47
63 66 68 72 76 79 82 88 91 91 101 103 107 120 119 126 124 118 124 128 126 110 76 63 57 57 56 56 53 50 48 53 53 50 52 53 53 49 42 41 41 45 46
67 69 72 77 78 85 92 93 93 98 108 113 122 123 124 123 121 126 129 129 110 75 65 57 56 54 53 52 48 46 49 53 50 50 50 50 51 42 38 37 37 40 42
70 74 75 82 87 94 94 95 104 107 114 122 121 124 124 121 128 130 129 112 74 67 57 54 53 51 48 47 45 42 51 47 49 50 49 50 48 38 34 30 29 29 33
75 77 84 88 93 93 95 105 106 106 122 122 86 123 120 123 130 126 114 108 68 59 53 51 50 47 43 44 42 45 43 44 48 48 48 48 45 35 29 24 19 19 19
80 85 87 94 94 97 105 108 117 121 122 80 124 116 123 129 128 111 109 70 62 54 50 48 47 43 40 41 40 43 41 42 45 45 45 45 41 32 24 18 17 16 16
88 89 93 93 93 105 105 121 122 121 120 124 120 124 127 127 109 110 69 62 56 49 46 45 43 38 37 42 41 39 40 42 44 42 41 40 38 29 21 16 15 15 16
89 94 94 93 104 108 116 122 118 111 116 106 126 125 123 108 109 86 63 57 51 45 43 41 40 39 41 39 39 38 41 42 43 42 40 39 35 30 20 14 14 14 11
92 98 100 100 108 118 123 121 104 104 120 126 124 121 110 110 94 85 58 52 45 42 41 37 37 40 40 35 35 40 42 43 43 41 39 37 32 27 20 14 14 13 6
99 106 100 78 115 124 105 116 88 121 127 125 122 111 109 104 84 83 52 47 40 39 37 37 38 38 34 33 39 39 39 39 39 39 37 35 31 27 22 15 15 12 10
Wind_Direction
277 275 274 278 277 277 278 273 258 270 276 282 288 291 291 291 293 295 296 297 297 297 298 297 296 295 295 295 295 297 297 296 294 292 291 291 291 291 288 287 284 283 280
272 271 271 274 285 284 273 276 283 284 286 286 288 287 288 292 292 293 295 297 298 296 297 297 296 294 294 296 295 294 294 293 293 293 292 289 287 286 284 283 281 278 275
276 279 281 282 283 287 289 290 289 288 289 288 286 287 292 292 294 293 296 294 294 296 295 292 292 295 294 297 295 294 294 295 293 291 289 287 285 283 280 280 278 275 272
276 281 285 287 289 290 291 289 286 287 284 284 287 291 288 289 290 293 292 293 293 291 290 293 293 295 293 296 297 297 297 299 299 297 297 295 292 287 283 281 277 275 273
285 286 288 290 290 286 287 286 287 285 287 290 292 291 291 292 291 291 292 292 292 293 293 295 297 298 301 303 305 304 303 301 298 297 294 290 288 286 287 283 278 275 271
289 288 288 290 292 294 293 287 291 291 293 293 292 291 289 290 291 292 294 294 294 296 299 301 304 306 307 306 303 303 299 300 298 295 294 293 292 289 288 287 290 287 278
293 296 297 294 296 293 292 295 296 295 293 293 294 295 295 297 298 296 299 301 301 302 306 307 306 307 306 304 300 299 299 299 300 299 298 296 295 293 292 290 291 292 285
298 293 293 292 298 301 302 301 302 301 301 300 301 301 302 302 302 303 303 305 306 308 308 307 305 302 303 301 299 302 304 304 302 302 298 298 300 296 296 293 296 289 285
303 304 306 305 305 304 301 302 302 302 303 302 303 306 308 306 305 305 305 305 308 309 304 302 301 300 300 301 305 305 306 306 303 300 303 302 303 302 295 297 293 290 284
301 301 300 299 298 299 301 301 302 303 305 308 307 308 306 304 305 305 306 303 302 301 299 299 299 308 308 308 309 308 310 305 304 303 303 302 303 304 300 298 294 291 287
298 296 296 297 304 305 305 303 302 301 307 307 306 304 307 306 306 301 303 301 303 304 300 310 313 310 309 310 309 310 308 308 306 305 305 307 305 303 300 296 292 289 288
304 307 308 308 306 304 303 303 303 302 302 302 302 305 304 301 303 301 304 300 313 314 316 314 313 314 309 315 312 312 310 308 308 308 308 306 305 302 299 297 295 293 291
310 310 310 308 305 304 301 302 304 306 307 306 303 301 301 308 305 307 310 319 318 317 318 316 314 314 312 315 313 311 309 310 309 308 308 306 305 303 304 301 298 294 291
312 312 318 313 312 309 309 310 308 310 307 305 308 312 312 318 319 319 321 320 319 320 314 317 314 312 315 313 311 311 311 309 309 307 308 308 307 306 306 304 301 301 300
312 313 317 313 311 311 312 312 309 307 308 311 311 316 322 320 320 322 322 320 319 313 316 315 316 315 313 312 310 311 311 311 310 312 311 310 313 311 309 309 311 308 304
317 314 316 311 311 312 311 307 312 309 311 319 316 320 321 317 323 322 320 319 318 315 317 316 318 315 314 312 313 314 313 312 313 314 313 314 312 316 316 318 317 313 311
311 310 311 312 312 311 310 311 314 316 320 319 322 321 321 322 321 320 318 320 317 319 317 319 316 315 314 313 315 314 314 313 314 317 317 315 320 321 323 321 320 322 319
311 312 313 314 315 315 312 318 320 315 320 320 320 323 322 321 320 318 320 320 319 319 320 318 316 314 313 314 315 313 315 315 317 322 321 323 324 326 326 325 329 328 325
311 313 312 315 312 316 322 321 317 318 323 323 322 320 320 320 319 318 318 319 319 321 319 317 315 314 313 315 313 315 316 317 320 322 324 328 328 330 330 331 335 336 333
313 314 313 315 316 322 321 318 321 322 323 322 321 321 318 319 320 320 319 322 321 320 318 316 314 313 313 314 315 317 318 320 321 323 329 332 332 331 331 336 342 345 345
315 313 317 317 320 320 318 321 320 321 322 321 321 319 319 320 320 320 321 322 320 319 317 314 313 313 312 314 316 319 320 320 321 326 330 334 334 332 333 338 340 341 347
316 317 315 318 318 319 321 319 322 322 320 320 319 320 320 319 320 322 323 321 320 319 316 314 314 312 312 316 317 319 320 321 321 328 331 334 335 331 332 335 332 336 335
317 315 316 317 311 320 317 321 321 320 320 318 319 321 319 320 320 323 321 321 320 317 315 314 314 312 312 316 318 320 320 321 321 329 331 335 336 332 325 321 321 325 337
313 315 317 314 319 319 319 320 319 318 318 319 319 318 320 321 323 322 321 320 319 316 315 315 314 314 315 317 319 319 321 322 324 328 331 334 337 336 323 304 306 311 336
314 317 318 316 319 319 319 319 319 317 320 317 319 320 321 322 323 323 320 319 317 315 314 315 314 314 317 319 321 321 323 325 327 328 329 331 333 333 323 289 292 301 303
316 319 316 316 318 318 318 318 317 320 321 319 319 321 324 323 323 323 319 316 314 313 313 313 312 316 320 321 321 324 327 333 335 333 329 329 332 333 327 284 275 280 266